Flag for U.S.A. Weather past 2 weeks in Pontiac, Michigan, U.S.A.

Now
66 °F

Scattered clouds.


Feels Like: 66 °F
Forecast: 43 / 66 °F
Wind: 7 mph from Northwest

Location: Oakland County International Airport

Current Time: Sep 17, 2014 at 6:03:49 PM

Latest Report: Sep 17, 2014 at 4:53 PM


Visibility: 10 mi

Pressure: 29.98 "Hg

Humidity: 40%

Dew point: 41 °F

Location of PontiacLocation

Historic Weather in Pontiac — Graph

°F

Pontiac temperature yesterday

Maximum temperature yesterday: 64 °F (at 3:53 PM)
Minimum temperature yesterday: 49 °F (at 6:53 AM)
Average temperature yesterday: 55 °F

Past Weeks' High & Low Weather Summary

 TemperatureHumidityPressure
High91 °F (Sep 5, 4:53 PM)94% (Sep 6, 3:01 AM)30.35 "Hg (Sep 6, 3:01 AM)
Low40 °F (Sep 14, 4:53 AM)37% (Sep 7, 5:53 PM)29.56 "Hg (Sep 10, 7:53 PM)
Average62 °F73%30.07 "Hg
* Reported Sep 2 4:53 PM — Sep 17 4:53 PM, Pontiac, Weather by CustomWeather, © 2014

Note: Actual official high and low records may vary slightly from our data, if they occured in-between our weather recording intervals... More about our weather records

Advertising

Pontiac weather history for previous 24 hours

 ConditionsComfort  
Time TempWeatherWind HumidityBarometerVisibility
4:53 PM
Sep 17
66 °FScattered clouds.7 mph40%29.98 "Hg10 mi
3:53 PM65 °FScattered clouds.7 mph44%29.98 "Hg10 mi
2:53 PM63 °FScattered clouds.8 mph45%29.98 "Hg10 mi
1:53 PM64 °FPassing clouds.6 mph49%30.00 "Hg10 mi
12:53 PM61 °FSunny.3 mph54%30.00 "Hg10 mi
11:53 AM60 °FSunny.6 mph56%30.01 "Hg10 mi
10:53 AM57 °FPassing clouds.7 mph60%30.04 "Hg10 mi
9:53 AM54 °FPassing clouds.7 mph64%30.05 "Hg10 mi
8:53 AM50 °FPassing clouds.3 mph74%30.06 "Hg10 mi
7:53 AM44 °FPassing clouds.No wind89%30.06 "Hg10 mi
6:53 AM44 °FPassing clouds.No wind89%30.05 "Hg10 mi
5:53 AM44 °FPassing clouds.No wind89%30.04 "Hg10 mi
4:53 AM45 °FClear.3 mph86%30.05 "Hg10 mi
3:53 AM47 °FClear.3 mph83%30.05 "Hg10 mi
2:53 AM48 °FPassing clouds.No wind83%30.06 "Hg10 mi
1:53 AM49 °FClear.No wind77%30.06 "Hg10 mi
12:53 AM50 °FClear.No wind74%30.07 "Hg10 mi
11:53 PM
Sep 16
51 °FClear.No wind74%30.08 "Hg10 mi
10:53 PM53 °FClear.6 mph74%30.08 "Hg10 mi
9:53 PM55 °FPassing clouds.6 mph72%30.08 "Hg10 mi
8:53 PM56 °FPassing clouds.No wind70%30.08 "Hg10 mi
7:53 PM59 °FPassing clouds.No wind56%30.07 "Hg10 mi
6:53 PM62 °FPassing clouds.6 mph48%30.08 "Hg10 mi
Weather by CustomWeather, © 2014

See weather overviewHow to use our weather pages